Location: Unspecified
(0.0000°N, 0.0000°E)
Time: 04:02:51
(UTC+00:00)

ISS - Pass Details

Date: 05 February 2026
Orbit: 413 x 428 km, 51.6° (Epoch: 18 February)

Event Time Altitude Azimuth Distance (km) Brightness Sun altitude
Rises 18:58:00 0° 299° (WNW) 2,360 0.8 -10.6°
Reaches altitude 10° 19:00:34 10° 278° (W) 1,503 0.2 -11.2°
Maximum altitude 19:02:55 18° 234° (SW) 1,128 -0.5 -11.8°
Drops below altitude 10° 19:05:17 10° 190° (S) 1,513 -0.6 -12.3°
Sets 19:07:53 0° 169° (S) 2,383 0.2 -13.0°
